KC9BHQ-13 Weather Reports


time (UTC)temp
C
wind
direction
speed
KPH
gust
KPH
rain 1hr
cm
rain 24hr
cm
rain mn
cm
humidity
%
barometer
mb
20260901184429 36 225 1.6 0.0 0.00 0.00 6.30 62
20260901183922 36 315 1.6 0.0 0.00 0.00 6.30 63
20260901183416 35 225 0.0 0.0 0.00 0.00 6.30 61
20260901182910 35 270 3.2 0.0 0.00 0.00 6.30 60
20260901182405 35 90 0.0 0.0 0.00 0.00 6.30 60
20260901181858 35 180 0.0 0.0 0.00 0.00 6.30 62
20260901181352 35 180 1.6 0.0 0.00 0.00 6.30 62
20260901180846 35 247 0.0 0.0 0.00 0.00 6.30 63
20260901180340 35 270 0.0 0.0 0.00 0.00 6.30 62
20260901175834 35 157 1.6 0.0 0.00 0.00 6.30 62
20260901175328 35 225 3.2 0.0 0.00 0.00 6.30 62
20260901174822 35 247 3.2 0.0 0.00 0.00 6.30 61
20260901174316 35 202 1.6 0.0 0.00 0.00 6.30 63
20260901173810 34 112 0.0 0.0 0.00 0.00 6.30 64
20260901173304 34 247 1.6 0.0 0.00 0.00 6.30 64
20260901172758 34 270 3.2 0.0 0.00 0.00 6.30 64
20260901172252 34 202 0.0 0.0 0.00 0.00 6.30 63
20260901171746 34 270 1.6 0.0 0.00 0.00 6.30 63
20260901171240 34 202 3.2 0.0 0.00 0.00 6.30 63
20260901170734 34 225 3.2 0.0 0.00 0.00 6.30 63
20260901170228 33 225 3.2 0.0 0.00 0.00 6.30 65
20260901165722 34 247 1.6 0.0 0.00 0.00 6.30 65
20260901165216 34 225 1.6 0.0 0.00 0.00 6.30 64
20260901164710 33 225 3.2 0.0 0.00 0.00 6.30 65
20260901164204 33 180 1.6 0.0 0.00 0.00 6.30 66
20260901163700 33 225 3.2 0.0 0.00 0.00 6.30 67
20260901163152 33 225 0.0 0.0 0.00 0.00 6.30 66
20260901162646 33 247 0.0 0.0 0.00 0.00 6.30 70
20260901162140 33 315 3.2 0.0 0.00 0.00 6.30 68
20260901161634 32 225 0.0 0.0 0.00 0.00 6.30 68
20260901161128 32 270 0.0 0.0 0.00 0.00 6.30 69
20260901160622 33 225 1.6 0.0 0.00 0.00 6.30 69
20260901160116 32 270 0.0 0.0 0.00 0.00 6.30 69
20260901155610 32 202 0.0 0.0 0.00 0.00 6.30 71
20260901155104 32 247 4.8 0.0 0.00 0.00 6.30 71
20260901154558 32 225 3.2 0.0 0.00 0.00 6.30 73
20260901154052 32 247 1.6 0.0 0.00 0.00 6.30 73
20260901153546 32 157 0.0 0.0 0.00 0.00 6.30 74
20260901153040 32 202 1.6 0.0 0.00 0.00 6.30 76
20260901152534 31 180 0.0 0.0 0.00 0.00 6.30 75
20260901152028 31 247 0.0 0.0 0.00 0.00 6.30 75
20260901151522 31 247 1.6 0.0 0.00 0.00 6.30 76
20260901151016 31 247 1.6 0.0 0.00 0.00 6.30 77
20260901150510 31 270 0.0 0.0 0.00 0.00 6.30 77
20260901150004 31 270 0.0 0.0 0.00 0.00 6.30 77
20260901145458 30 247 0.0 0.0 0.00 0.00 6.30 78
20260901144952 30 270 0.0 0.0 0.00 0.00 6.30 79
20260901144446 30 247 1.6 0.0 0.00 0.00 6.30 79
20260901143940 30 270 1.6 0.0 0.00 0.00 6.30 78
20260901143434 30 112 0.0 0.0 0.00 0.00 6.30 79
20260901142928 31 270 0.0 0.0 0.00 0.00 6.30 77
20260901142422 30 225 1.6 0.0 0.00 0.00 6.30 78
20260901141917 30 202 0.0 0.0 0.00 0.00 6.30 78
20260901141410 30 225 0.0 0.0 0.00 0.00 6.30 80
20260901140904 29 337 0.0 0.0 0.00 0.00 6.30 82
20260901140358 28 180 0.0 0.0 0.00 0.00 6.30 83
20260901135852 28 157 0.0 0.0 0.00 0.00 6.30 85
20260901135346 27 247 0.0 0.0 0.00 0.00 6.30 85
20260901134840 27 202 0.0 0.0 0.00 0.00 6.30 87
20260901134334 26 270 1.6 0.0 0.00 0.00 6.30 89
20260901133828 26 135 0.0 0.0 0.00 0.00 6.30 90
20260901133322 26 225 0.0 0.0 0.00 0.00 6.30 91
20260901132816 25 225 0.0 0.0 0.00 0.00 6.30 92
20260901132310 25 180 0.0 0.0 0.00 0.00 6.30 93
20260901131804 25 157 0.0 0.0 0.00 0.00 6.30 94
20260901131258 25 112 0.0 0.0 0.00 0.00 6.30 94
20260901130753 25 202 0.0 0.0 0.00 0.00 6.30 95
20260901130246 24 202 0.0 0.0 0.00 0.00 6.30 95
20260901125740 24 202 0.0 0.0 0.00 0.00 6.30 96
20260901125234 24 180 0.0 0.0 0.00 0.00 6.30 96
20260901124728 23 202 0.0 0.0 0.00 0.00 6.30 97
20260901124222 23 157 0.0 0.0 0.00 0.00 6.30 97
20260901123716 23 315 0.0 0.0 0.00 0.00 6.30 98
20260901123210 23 202 0.0 0.0 0.00 0.00 6.30 99
20260901122704 23 202 0.0 0.0 0.00 0.00 6.30 99
20260901122158 23 157 0.0 0.0 0.00 0.00 6.30 99
20260901121652 22 157 0.0 0.0 0.00 0.00 6.30 99
20260901121146 22 180 0.0 0.0 0.00 0.00 6.30 99
20260901120640 22 202 0.0 0.0 0.00 0.00 6.30 99
20260901120135 22 112 0.0 0.0 0.00 0.00 6.30 99
20260901115628 22 157 0.0 0.0 0.00 0.00 6.30 99
20260901115122 22 157 0.0 0.0 0.00 0.00 6.30 99
20260901114616 22 180 0.0 0.0 0.00 0.00 6.30 99
20260901114110 22 202 0.0 0.0 0.00 0.00 6.30 99
20260901113604 22 202 0.0 0.0 0.00 0.00 6.30 99
20260901113058 22 180 0.0 0.0 0.00 0.00 6.30 99
20260901112552 22 135 0.0 0.0 0.00 0.00 6.30 99
20260901112046 22 225 0.0 0.0 0.00 0.00 6.30 99
20260901111540 22 202 0.0 0.0 0.00 0.00 6.30 99
20260901111034 22 180 0.0 0.0 0.00 0.00 6.30 99
20260901110529 22 180 0.0 0.0 0.00 0.00 6.30 99
20260901110022 22 202 0.0 0.0 0.00 0.00 6.30 99
20260901105516 22 180 0.0 0.0 0.00 0.00 6.30 99
20260901105010 22 180 0.0 0.0 0.00 0.00 6.30 99
20260901104504 22 157 0.0 0.0 0.00 0.00 6.30 99
20260901103958 22 180 0.0 0.0 0.00 0.00 6.30 99
20260901103452 22 202 0.0 0.0 0.00 0.00 6.30 99
20260901102946 22 180 0.0 0.0 0.00 0.00 6.30 99
20260901102441 22 180 0.0 0.0 0.00 0.00 6.30 99
20260901101934 22 180 0.0 0.0 0.00 0.00 6.30 99
20260901101428 22 202 0.0 0.0 0.00 0.00 6.30 99
20260901100923 22 157 0.0 0.0 0.00 0.00 6.30 99
20260901100416 22 202 0.0 0.0 0.00 0.00 6.30 99
20260901095910 22 157 0.0 0.0 0.00 0.00 6.30 99
20260901095404 22 180 0.0 0.0 0.00 0.00 6.30 99
20260901094858 22 112 0.0 0.0 0.00 0.00 6.30 99
20260901094352 22 157 0.0 0.0 0.00 0.00 6.30 99
20260901093847 22 180 0.0 0.0 0.00 0.00 6.30 99
20260901093340 22 180 0.0 0.0 0.00 0.00 6.30 99
20260901092834 22 157 0.0 0.0 0.00 0.00 6.30 99
20260901092328 22 180 0.0 0.0 0.00 0.00 6.30 99
20260901091823 22 225 0.0 0.0 0.00 0.00 6.30 98
20260901091316 22 202 0.0 0.0 0.00 0.00 6.30 98
20260901090810 22 202 0.0 0.0 0.00 0.00 6.30 98
20260901090304 22 180 0.0 0.0 0.00 0.00 6.30 98
20260901085758 22 247 0.0 0.0 0.00 0.00 6.30 98
20260901085252 22 225 0.0 0.0 0.00 0.00 6.30 98
20260901084746 23 202 0.0 0.0 0.00 0.00 6.30 98
20260901084240 23 112 0.0 0.0 0.00 0.00 6.30 98
20260901083734 23 180 0.0 0.0 0.00 0.00 6.30 98
20260901083228 23 180 0.0 0.0 0.00 0.00 6.30 97
20260901082722 23 225 0.0 0.0 0.00 0.00 6.30 97
20260901082217 23 202 0.0 0.0 0.00 0.00 6.30 97
20260901081710 23 180 0.0 0.0 0.00 0.00 6.30 97
20260901081204 23 225 0.0 0.0 0.00 0.00 6.30 97
20260901080658 23 202 0.0 0.0 0.00 0.00 6.30 97
20260901080152 23 202 0.0 0.0 0.00 0.00 6.30 97
20260901075646 23 180 0.0 0.0 0.00 0.00 6.30 97
20260901075140 23 180 0.0 0.0 0.00 0.00 6.30 97
20260901074634 23 180 0.0 0.0 0.00 0.00 6.30 97
20260901074128 23 180 0.0 0.0 0.00 0.00 6.30 97
20260901073623 23 180 0.0 0.0 0.00 0.00 6.30 96
20260901073116 23 157 0.0 0.0 0.00 0.00 6.30 96
20260901072611 23 180 0.0 0.0 0.00 0.00 6.30 96
20260901072105 23 247 0.0 0.0 0.00 0.00 6.30 96
20260901071559 23 202 0.0 0.0 0.00 0.00 6.30 96
20260901071052 23 180 0.0 0.0 0.00 0.00 6.30 96
20260901070546 23 157 0.0 0.0 0.00 0.00 6.30 96
20260901070040 23 112 0.0 0.0 0.00 0.00 6.30 96
20260901065534 23 247 0.0 0.0 0.00 0.00 6.30 96
20260901065028 23 180 0.0 0.0 0.00 0.00 6.30 96
20260901064523 23 157 0.0 0.0 0.00 0.00 6.30 96
20260901064017 23 180 0.0 0.0 0.00 0.00 6.30 96
20260901063510 23 225 0.0 0.0 0.00 0.00 6.30 96
20260901063004 23 202 0.0 0.0 0.00 0.00 6.30 96
20260901062458 23 202 0.0 0.0 0.00 0.00 6.30 96
20260901061952 23 180 0.0 0.0 0.00 0.00 6.30 95
20260901061447 23 180 0.0 0.0 0.00 0.00 6.30 94
20260901060940 23 180 0.0 0.0 0.00 0.00 6.30 94
20260901060435 23 180 0.0 0.0 0.00 0.00 6.30 94
20260901055929 23 180 0.0 0.0 0.00 0.00 6.30 94
20260901055422 23 180 0.0 0.0 0.00 0.00 6.30 94
20260901054917 23 157 0.0 0.0 0.00 0.00 6.30 93
20260901054410 23 180 0.0 0.0 0.00 0.00 6.30 93
20260901053904 23 180 0.0 0.0 0.00 0.00 6.30 93
20260901053358 23 180 0.0 0.0 0.00 0.00 6.30 93
20260901052852 23 180 0.0 0.0 0.00 0.00 6.30 93
20260901052347 23 157 0.0 0.0 0.00 0.00 6.30 92
20260901051840 23 180 0.0 0.0 0.00 0.00 6.30 92
20260901051334 23 180 0.0 0.0 0.00 0.00 6.30 92
20260901050829 23 225 0.0 0.0 0.00 0.00 6.30 92
20260901050322 23 202 0.0 0.0 0.00 0.00 6.30 92
20260901045816 23 180 0.0 0.0 0.00 0.00 6.30 92
20260901045310 23 112 0.0 0.0 0.00 0.00 6.30 93
20260901044804 23 157 0.0 0.0 0.00 0.00 6.30 93
20260901044259 23 157 0.0 0.0 0.00 0.00 6.30 92
20260901043752 23 180 0.0 0.0 0.00 0.00 6.30 92
20260901043246 23 180 0.0 0.0 0.00 0.00 6.30 92
20260901042741 23 180 0.0 0.0 0.00 0.00 6.30 90
20260901042234 23 157 0.0 0.0 0.00 0.00 6.30 90
20260901041728 23 180 0.0 0.0 0.00 0.00 6.30 90
20260901041223 23 180 0.0 0.0 0.00 0.00 6.30 90
20260901040716 23 180 0.0 0.0 0.00 0.00 6.30 90
20260901040210 23 180 0.0 0.0 0.00 0.00 6.30 90
20260901035704 23 180 0.0 0.0 0.00 0.00 6.30 88
20260901035158 23 157 0.0 0.0 0.00 0.00 6.30 88
20260901034653 24 157 0.0 0.0 0.00 0.00 6.30 88
20260901034147 24 180 0.0 0.0 0.00 0.00 6.30 87
20260901033640 24 180 0.0 0.0 0.00 0.00 6.30 87
20260901033135 25 180 0.0 0.0 0.00 0.00 6.30 86
20260901032628 25 180 0.0 0.0 0.00 0.00 6.30 85
20260901032122 25 157 0.0 0.0 0.00 0.00 6.30 84
20260901031617 25 180 0.0 0.0 0.00 0.00 6.30 82
20260901031110 25 180 0.0 0.0 0.00 0.00 6.30 82
20260901030605 25 157 0.0 0.0 0.00 0.00 6.30 81
20260901030059 26 157 0.0 0.0 0.00 0.00 6.30 80
20260901025552 26 157 0.0 0.0 0.00 0.00 6.30 80
20260901025047 26 157 0.0 0.0 0.00 0.00 6.30 80
20260901024540 26 157 0.0 0.0 0.00 0.00 6.30 80
20260901024034 26 112 0.0 0.0 0.00 0.00 6.30 79
20260901023529 26 180 0.0 0.0 0.00 0.00 6.30 78
20260901023023 26 157 0.0 0.0 0.00 0.00 6.30 78
20260901022517 26 202 0.0 0.0 0.00 0.00 6.30 78
20260901022011 26 225 0.0 0.0 0.00 0.00 6.30 78
20260901021504 26 112 0.0 0.0 0.00 0.00 6.30 77
20260901020959 26 157 0.0 0.0 0.00 0.00 6.30 77
20260901020452 26 180 0.0 0.0 0.00 0.00 6.30 77
20260901015946 26 270 0.0 0.0 0.00 0.00 6.30 77
20260901015441 26 202 0.0 0.0 0.00 0.00 6.30 75
20260901014934 26 135 0.0 0.0 0.00 0.00 6.30 75
20260901014429 26 180 0.0 0.0 0.00 0.00 6.30 76
20260901013923 26 180 0.0 0.0 0.00 0.00 6.30 74
20260901013416 26 180 0.0 0.0 0.00 0.00 6.30 74
20260901012911 26 180 0.0 0.0 0.00 0.00 6.30 73
20260901012405 26 180 0.0 0.0 0.00 0.00 6.30 73
20260901011858 27 180 0.0 0.0 0.00 0.00 6.30 72
20260901011353 27 180 0.0 0.0 0.00 0.00 6.30 73
20260901010847 27 180 0.0 0.0 0.00 0.00 6.30 70
20260901010340 27 180 0.0 0.0 0.00 0.00 6.30 69
20260901005835 27 180 0.0 0.0 0.00 0.00 6.30 69
20260901005329 27 180 0.0 0.0 0.00 0.00 6.30 69
20260901004823 28 180 0.0 0.0 0.00 0.00 6.30 69
20260901004316 28 180 0.0 0.0 0.00 0.00 6.30 67
20260901003810 28 180 0.0 0.0 0.00 0.00 6.30 67
20260901003305 28 180 0.0 0.0 0.00 0.00 6.30 67
20260901002759 29 180 0.0 0.0 0.00 0.00 6.30 66
20260901002252 30 157 0.0 0.0 0.00 0.00 6.30 66
20260901001747 30 202 0.0 0.0 0.00 0.00 6.30 65
20260901001240 30 180 0.0 0.0 0.00 0.00 6.30 65
20260901000735 31 180 0.0 0.0 0.00 0.00 6.30 63
20260901000229 31 135 0.0 0.0 0.00 0.00 6.30 63
20260831235722 31 180 0.0 0.0 0.00 0.00 6.30 61
20260831235217 32 202 0.0 0.0 0.00 0.00 6.30 60
20260831234710 32 180 0.0 0.0 0.00 0.00 6.30 59
20260831234204 33 157 0.0 0.0 0.00 0.00 6.30 58
20260831233659 33 180 0.0 0.0 0.00 0.00 6.30 56
20260831233152 35 180 0.0 0.0 0.00 0.00 6.30 54
20260831232647 34 225 0.0 0.0 0.00 0.00 6.27 55
20260831232141 35 180 0.0 0.0 0.00 0.00 6.27 53
20260831231634 35 180 0.0 0.0 0.00 0.00 6.27 53
20260831231129 36 180 0.0 0.0 0.00 0.00 6.27 52
20260831230623 36 180 0.0 0.0 0.00 0.00 6.27 51
20260831230117 36 270 0.0 0.0 0.00 0.00 6.27 51
20260831225611 36 135 0.0 0.0 0.00 0.00 6.27 50
20260831225105 36 112 0.0 0.0 0.00 0.00 6.27 50
20260831224558 36 202 0.0 0.0 0.00 0.00 6.27 51
20260831224053 36 202 0.0 0.0 0.00 0.00 6.27 50
20260831223546 37 157 0.0 0.0 0.00 0.00 6.27 50
20260831223041 36 270 0.0 0.0 0.00 0.00 6.27 50
20260831222535 37 225 0.0 0.0 0.00 0.00 6.27 52
20260831222028 36 67 0.0 0.0 0.00 0.00 6.27 52
20260831221523 36 270 0.0 0.0 0.00 0.00 6.27 51
20260831221016 36 225 0.0 0.0 0.00 0.00 6.27 52
20260831220510 36 157 0.0 0.0 0.00 0.00 6.27 52
20260831220005 36 225 0.0 0.0 0.00 0.00 6.27 49
20260831215459 36 135 0.0 0.0 0.00 0.00 6.27 51
20260831214953 35 247 1.6 0.0 0.00 0.00 6.27 53
20260831214447 35 225 0.0 0.0 0.00 0.00 6.27 54
20260831213940 35 180 3.2 0.0 0.00 0.00 6.25 53
20260831213435 35 225 0.0 0.0 0.00 0.00 6.25 54
20260831212929 35 202 0.0 0.0 0.00 0.00 6.25 52
20260831212423 35 180 0.0 0.0 0.00 0.00 6.25 52
20260831211917 35 180 0.0 0.0 0.00 0.00 6.25 51
20260831211410 36 225 1.6 0.0 0.00 0.00 6.25 52
20260831210904 35 135 1.6 0.0 0.00 0.00 6.25 52
20260831210359 35 247 0.0 0.0 0.00 0.00 6.25 54
20260831205852 35 225 0.0 0.0 0.00 0.00 6.25 53
20260831205347 35 247 0.0 0.0 0.00 0.00 6.25 54
20260831204841 35 270 0.0 0.0 0.00 0.00 6.22 53
20260831204334 35 225 0.0 0.0 0.00 0.00 6.22 53
20260831203829 35 225 0.0 0.0 0.00 0.00 6.22 53
20260831203323 35 270 0.0 0.0 0.00 0.00 6.22 53
20260831202817 35 225 0.0 0.0 0.00 0.00 6.22 54
20260831202311 35 225 0.0 0.0 0.00 0.00 6.22 53
20260831201805 35 135 3.2 0.0 0.00 0.00 6.22 54
20260831201258 35 90 1.6 0.0 0.00 0.00 6.22 54
20260831200753 35 247 1.6 0.0 0.00 0.00 6.22 53
20260831200246 35 45 1.6 0.0 0.00 0.00 6.22 53
20260831195741 35 202 0.0 0.0 0.00 0.00 6.22 54
20260831195235 35 270 1.6 0.0 0.00 0.00 6.22 52
20260831194729 35 270 0.0 0.0 0.00 0.00 6.22 53
20260831194223 35 270 1.6 0.0 0.00 0.00 6.22 53
20260831193716 35 202 1.6 0.0 0.00 0.00 6.22 54
20260831193210 35 225 0.0 0.0 0.00 0.00 6.22 54
20260831192705 35 112 1.6 0.0 0.00 0.00 6.22 54
20260831192158 35 135 1.6 0.0 0.00 0.00 6.22 55
20260831191653 35 270 0.0 0.0 0.00 0.00 6.22 54
20260831191147 35 270 3.2 0.0 0.00 0.00 6.22 55
20260831190640 35 270 1.6 0.0 0.00 0.00 6.22 54
20260831190135 35 270 1.6 0.0 0.00 0.00 6.22 56
20260831185629 35 180 1.6 0.0 0.00 0.00 6.22 55
20260831185124 35 180 0.0 0.0 0.00 0.00 6.22 58
20260831184617 35 270 1.6 0.0 0.00 0.00 6.22 54